TimeAKST,TemperatureF,Dew PointF,Humidity,Sea Level PressureIn,VisibilityMPH,Wind Direction,Wind SpeedMPH,Gust SpeedMPH,PrecipitationIn,Events,Conditions,WindDirDegrees,DateUTC
12:53 AM,-9.0,-14.1,79,29.55,10.0,NE,5.8,-,N/A,,Clear,40,2012-12-05 09:53:00
1:53 AM,-11.0,-15.0,83,29.55,10.0,NNE,4.6,-,N/A,,Clear,30,2012-12-05 10:53:00
3:53 AM,-11.9,-17.0,78,29.56,10.0,Calm,Calm,-,N/A,,Clear,0,2012-12-05 12:53:00
5:53 AM,-9.9,-15.0,78,29.56,10.0,NNE,6.9,-,N/A,,Clear,20,2012-12-05 14:53:00
6:53 AM,-11.0,-16.1,78,29.55,10.0,NE,6.9,-,N/A,,Clear,40,2012-12-05 15:53:00
7:53 AM,-8.0,-14.1,75,29.55,10.0,NE,4.6,-,N/A,,Clear,40,2012-12-05 16:53:00
8:53 AM,-11.0,-16.1,78,29.57,10.0,Calm,Calm,-,N/A,,Clear,0,2012-12-05 17:53:00
9:53 AM,-11.9,-17.0,78,29.57,10.0,NNE,3.5,-,N/A,,Clear,30,2012-12-05 18:53:00
10:53 AM,-9.0,-15.0,75,29.58,10.0,NE,4.6,-,N/A,,Clear,40,2012-12-05 19:53:00
11:53 AM,-4.0,-9.9,76,29.59,10.0,Calm,Calm,-,N/A,,Clear,0,2012-12-05 20:53:00
12:53 PM,1.0,-6.0,72,29.60,10.0,NE,8.1,-,N/A,,Clear,50,2012-12-05 21:53:00
1:53 PM,1.0,-7.1,69,29.59,10.0,NE,6.9,-,N/A,,Clear,50,2012-12-05 22:53:00
2:53 PM,1.9,-6.0,69,29.59,10.0,ENE,5.8,-,N/A,,Clear,70,2012-12-05 23:53:00
3:53 PM,1.0,-7.1,69,29.59,10.0,NE,5.8,-,N/A,,Clear,50,2012-12-06 00:53:00
4:53 PM,-0.9,-8.0,72,29.59,10.0,NE,3.5,-,N/A,,Clear,40,2012-12-06 01:53:00
5:53 PM,-7.1,-11.9,79,29.59,10.0,Calm,Calm,-,N/A,,Clear,0,2012-12-06 02:53:00
6:53 PM,-7.1,-11.0,83,29.59,10.0,East,4.6,-,N/A,,Clear,90,2012-12-06 03:53:00
7:53 PM,-9.0,-13.0,83,29.60,10.0,Calm,Calm,-,N/A,,Clear,0,2012-12-06 04:53:00
8:53 PM,-11.9,-16.1,82,29.60,10.0,Calm,Calm,-,N/A,,Clear,0,2012-12-06 05:53:00
9:53 PM,-13.0,-18.0,78,29.62,10.0,Calm,Calm,-,N/A,,Clear,0,2012-12-06 06:53:00
10:53 PM,-16.1,-20.9,79,29.62,10.0,Calm,Calm,-,N/A,,Clear,0,2012-12-06 07:53:00
11:53 PM,-13.0,-17.0,82,29.63,10.0,Calm,Calm,-,N/A,,Clear,0,2012-12-06 08:53:00